Погода в Львове

Россия / Смоленская область     55°24′45″N   32°44′52″E
темп.,
°C
ветер,
м/с
пор.,
м/с
влажн.,
%
обл.,
%
осадки,
мм/ч
давл.,
гПа
погр.,
м
16 апреля, пт
пт1600:00+9всв61588100 0.5 1017738
03:00+8св51590100 1.2 1016596
06:00+7всв61389100 0.1 1016659
09:00+8всв51189100 0.1 1017596
12:00+10всв5985100 0.1 1018788
15:00+11всв4981100 0.1 10191015
18:00+12всв51179100 0.1 1017715
21:00+11всв41183100 0.9 1018701
17 апреля, сб
сб1700:00+10всв41090100 3.6 1019678
03:00+9всв51191100 4.7 1019655
06:00+8в51091100 0.0 1020629
09:00+10в4882100 0.0 1021728
12:00+10всв4678100 0.0 1021768
15:00+11св4980100 0.1 10211053
18:00+12св51271100 0.1 10191061
21:00+11всв5137199 0.1 1020843
18 апреля, вс
вс1800:00+9св6147394 0.0 1019732
03:00+7всв51271100 0.0 1020799
06:00+6всв4979100 0.1 1021600
09:00+5всв4885100 0.4 1021472
12:00+6св478596 0.0 1022550
15:00+5всв5889100 0.3 1023652
18:00+6всв5986100 0.0 1022709
21:00+5всв41092100 0.0 1023558
19 апреля, пн
пн1900:00+5всв41092100 0.0 1023593
03:00+5всв41090100 0.0 1022702
06:00+5всв51091100 0.0 1022730
09:00+6в61186100 0.0 1022841
12:00+7в61082100 0.3 10211031
15:00+8в61181100 0.9 10211249
18:00+7всв71285100 1.1 1020930
21:00+6в61387100 1.1 1020902
20 апреля, вт
вт2000:00+6в61289100 0.0 1018861
03:00+5всв51192100 0.9 10161050
06:00+6всв61390100 2.6 10131072
09:00+4всв71590100 4.9 1011859
12:00+4всв71692100 3.3 10081075
15:00+4всв81992100 9.3 10041333
18:00+4в81896100 8.0 10001167
21:00+6в61493100 13.4 996950